WMT771 LATI-LIRZ

Flight info

Callsign WMT771
Flight time 1h 8m
Altitude 34000
Route DIRES DCT PAPIZ DCT DIVKU DCT SUXUB DCT MOPUV Y106 GITOD
Aircraft A321/M-SDE3FGHIRWY/LB1

Departure

Time 2026-04-24 10:28
Airport Tirana International Airport Mother Teresa (LATI)

Arrival

Time 2026-04-24 11:36
Airport Perugia San Francesco d'Assisi – Umbria International Airport (LIRZ)
Time Latitude Longitude Altitude Speed Heading
2026-04-24 10:08 41.42067 19.71492 132 ft 0 kts 265°
2026-04-24 10:17 41.42069 19.71509 132 ft 4 kts 255°
2026-04-24 10:18 41.42080 19.71540 132 ft 4 kts 220°
2026-04-24 10:18 41.42102 19.71554 132 ft 4 kts 180°
2026-04-24 10:18 41.42108 19.71554 132 ft 0 kts 174°
2026-04-24 10:21 41.42107 19.71554 159 ft 1 kts 174°
2026-04-24 10:22 41.42099 19.71555 132 ft 2 kts 174°
2026-04-24 10:22 41.42055 19.71561 132 ft 13 kts 174°
2026-04-24 10:22 41.41925 19.71578 132 ft 23 kts 174°
2026-04-24 10:22 41.41763 19.71600 132 ft 24 kts 174°
2026-04-24 10:23 41.41597 19.71621 132 ft 24 kts 174°
2026-04-24 10:23 41.41429 19.71642 132 ft 24 kts 175°
2026-04-24 10:23 41.41259 19.71664 132 ft 25 kts 174°
2026-04-24 10:23 41.41088 19.71687 132 ft 25 kts 174°
2026-04-24 10:24 41.40916 19.71713 132 ft 25 kts 172°
2026-04-24 10:24 41.40744 19.71752 132 ft 25 kts 172°
2026-04-24 10:24 41.40575 19.71775 132 ft 21 kts 175°
2026-04-24 10:24 41.40441 19.71792 132 ft 15 kts 173°
2026-04-24 10:25 41.40351 19.71849 132 ft 15 kts 144°
2026-04-24 10:25 41.40267 19.71932 132 ft 15 kts 140°
2026-04-24 10:25 41.40236 19.72037 132 ft 11 kts 86°
2026-04-24 10:25 41.40239 19.72081 132 ft 0 kts 83°
2026-04-24 10:26 41.40240 19.72083 132 ft 1 kts 83°
2026-04-24 10:26 41.40243 19.72115 132 ft 6 kts 83°
2026-04-24 10:27 41.40256 19.72191 132 ft 10 kts 51°
2026-04-24 10:27 41.40340 19.72208 132 ft 15 kts 355°
2026-04-24 10:27 41.40484 19.72188 131 ft 37 kts 354°
2026-04-24 10:27 41.40978 19.72121 132 ft 104 kts 354°
2026-04-24 10:28 41.41891 19.72002 125 ft 157 kts 353°
2026-04-24 10:28 41.43010 19.71835 670 ft 158 kts 351°
2026-04-24 10:28 41.44103 19.71686 1338 ft 158 kts 352°
2026-04-24 10:28 41.45202 19.71543 2036 ft 163 kts 353°
2026-04-24 10:29 41.46398 19.71387 2457 ft 183 kts 354°
2026-04-24 10:29 41.47734 19.71211 2653 ft 204 kts 354°
2026-04-24 10:29 41.49232 19.71013 2859 ft 227 kts 354°
2026-04-24 10:29 41.50863 19.70800 3175 ft 246 kts 354°
2026-04-24 10:30 41.52603 19.70573 3797 ft 254 kts 354°
2026-04-24 10:30 41.54368 19.70342 4590 ft 256 kts 355°
2026-04-24 10:30 41.56155 19.70106 5313 ft 260 kts 355°
2026-04-24 10:30 41.57968 19.69864 6045 ft 263 kts 355°
2026-04-24 10:31 41.59806 19.69619 6729 ft 269 kts 355°
2026-04-24 10:31 41.61616 19.68967 6938 ft 272 kts 333°
2026-04-24 10:31 41.63051 19.67329 6998 ft 275 kts 308°
2026-04-24 10:31 41.63859 19.65013 6998 ft 279 kts 283°
2026-04-24 10:32 41.63887 19.62423 7010 ft 282 kts 259°
2026-04-24 10:32 41.63099 19.60023 7001 ft 285 kts 233°
2026-04-24 10:32 41.61616 19.58284 7006 ft 286 kts 207°
2026-04-24 10:32 41.59729 19.57551 7003 ft 285 kts 181°
2026-04-24 10:33 41.57779 19.57695 7002 ft 284 kts 173°
2026-04-24 10:33 41.55782 19.57930 7001 ft 284 kts 173°
2026-04-24 10:33 41.53840 19.58156 7005 ft 285 kts 173°
2026-04-24 10:33 41.51861 19.58381 7003 ft 286 kts 173°
2026-04-24 10:34 41.49877 19.58604 7010 ft 286 kts 173°
2026-04-24 10:34 41.47896 19.58826 7000 ft 286 kts 173°
2026-04-24 10:34 41.45912 19.59046 7002 ft 286 kts 173°
2026-04-24 10:34 41.43929 19.59263 7006 ft 287 kts 173°
2026-04-24 10:35 41.41943 19.59484 6996 ft 286 kts 173°
2026-04-24 10:35 41.39959 19.59706 6996 ft 286 kts 173°
2026-04-24 10:35 41.37978 19.59926 7003 ft 286 kts 173°
2026-04-24 10:35 41.35987 19.60148 7110 ft 290 kts 173°
2026-04-24 10:36 41.33973 19.60374 7873 ft 291 kts 174°
2026-04-24 10:36 41.31935 19.60398 8589 ft 296 kts 185°
2026-04-24 10:36 41.29899 19.59892 9245 ft 300 kts 197°
2026-04-24 10:36 41.27954 19.58855 9906 ft 304 kts 209°
2026-04-24 10:37 41.26160 19.57309 10389 ft 314 kts 220°
2026-04-24 10:37 41.24555 19.55202 10534 ft 335 kts 233°
2026-04-24 10:37 41.23179 19.52598 10723 ft 353 kts 238°
2026-04-24 10:37 41.21779 19.49871 11195 ft 360 kts 237°
2026-04-24 10:38 41.20349 19.47113 11784 ft 364 kts 237°
2026-04-24 10:38 41.18899 19.44333 12366 ft 368 kts 237°
2026-04-24 10:38 41.17431 19.41522 12957 ft 372 kts 237°
2026-04-24 10:38 41.15952 19.38691 13564 ft 376 kts 237°
2026-04-24 10:39 41.14456 19.35828 14136 ft 379 kts 237°
2026-04-24 10:39 41.12945 19.32939 14664 ft 382 kts 237°
2026-04-24 10:39 41.11424 19.30033 15214 ft 386 kts 237°
2026-04-24 10:39 41.09890 19.27099 15768 ft 389 kts 237°
2026-04-24 10:40 41.08344 19.24144 16309 ft 392 kts 237°
2026-04-24 10:40 41.06784 19.21166 16861 ft 395 kts 237°
2026-04-24 10:40 41.05110 19.18260 17390 ft 400 kts 230°
2026-04-24 10:40 41.03232 19.15528 17926 ft 403 kts 229°
2026-04-24 10:41 41.01334 19.12780 18457 ft 406 kts 229°
2026-04-24 10:41 40.99419 19.10007 18911 ft 409 kts 229°
2026-04-24 10:41 40.97495 19.07222 19386 ft 412 kts 229°
2026-04-24 10:41 40.95556 19.04412 19848 ft 415 kts 229°
2026-04-24 10:42 40.93644 19.01544 20305 ft 417 kts 235°
2026-04-24 10:42 40.92122 18.98301 20773 ft 416 kts 247°
2026-04-24 10:42 40.91406 18.95950 21070 ft 415 kts 256°
2026-04-24 10:42 40.90809 18.92252 21515 ft 413 kts 268°
2026-04-24 10:43 40.90800 18.88458 21952 ft 411 kts 279°
2026-04-24 10:43 40.91608 18.83585 22527 ft 410 kts 289°
2026-04-24 10:43 40.92379 18.79948 22954 ft 413 kts 289°
2026-04-24 10:43 40.93146 18.76279 23349 ft 416 kts 289°
2026-04-24 10:44 40.93665 18.73780 23627 ft 418 kts 289°
2026-04-24 10:44 40.94435 18.70065 23979 ft 420 kts 289°
2026-04-24 10:44 40.95210 18.66331 24335 ft 422 kts 289°
2026-04-24 10:44 40.95987 18.62582 24699 ft 424 kts 289°
2026-04-24 10:45 40.96766 18.58815 25053 ft 426 kts 289°
2026-04-24 10:45 40.97549 18.55024 25410 ft 427 kts 289°
2026-04-24 10:45 40.98333 18.51223 25767 ft 429 kts 289°
2026-04-24 10:45 40.99123 18.47409 26105 ft 431 kts 289°
2026-04-24 10:46 40.99917 18.43576 26444 ft 433 kts 289°
2026-04-24 10:46 41.00707 18.39733 26764 ft 435 kts 289°
2026-04-24 10:46 41.01498 18.35860 27095 ft 437 kts 289°
2026-04-24 10:46 41.02281 18.32015 27411 ft 438 kts 289°
2026-04-24 10:47 41.03076 18.28111 27741 ft 440 kts 289°
2026-04-24 10:47 41.03886 18.24134 28066 ft 442 kts 289°
2026-04-24 10:47 41.04675 18.20248 28377 ft 444 kts 289°
2026-04-24 10:47 41.05489 18.16243 28690 ft 446 kts 289°
2026-04-24 10:48 41.06286 18.12324 28993 ft 447 kts 289°
2026-04-24 10:48 41.07097 18.08330 29288 ft 449 kts 289°
2026-04-24 10:48 41.07907 18.04324 29586 ft 451 kts 289°
2026-04-24 10:48 41.08718 18.00309 29890 ft 453 kts 289°
2026-04-24 10:49 41.09531 17.96267 30195 ft 454 kts 289°
2026-04-24 10:49 41.10344 17.92218 30450 ft 456 kts 289°
2026-04-24 10:49 41.11157 17.88148 30791 ft 455 kts 289°
2026-04-24 10:49 41.11963 17.84092 31130 ft 455 kts 289°
2026-04-24 10:50 41.12768 17.80037 31457 ft 454 kts 288°
2026-04-24 10:50 41.13572 17.75988 31769 ft 454 kts 289°
2026-04-24 10:50 41.14379 17.71936 32076 ft 454 kts 288°
2026-04-24 10:50 41.15187 17.67888 32379 ft 454 kts 288°
2026-04-24 10:51 41.15992 17.63835 32683 ft 454 kts 288°
2026-04-24 10:51 41.16794 17.59785 33003 ft 454 kts 288°
2026-04-24 10:51 41.17593 17.55734 33312 ft 453 kts 288°
2026-04-24 10:51 41.18386 17.51692 33619 ft 453 kts 288°
2026-04-24 10:52 41.19178 17.47642 33922 ft 453 kts 288°
2026-04-24 10:52 41.19969 17.43597 34102 ft 453 kts 288°
2026-04-24 10:52 41.20756 17.39567 34118 ft 449 kts 288°
2026-04-24 10:53 41.22312 17.31568 34133 ft 447 kts 288°
2026-04-24 10:53 41.23866 17.23580 34128 ft 446 kts 288°
2026-04-24 10:54 41.25414 17.15591 34132 ft 446 kts 288°
2026-04-24 10:54 41.26956 17.07602 34132 ft 446 kts 287°
2026-04-24 10:55 41.28481 16.99606 34115 ft 446 kts 288°
2026-04-24 10:55 41.30015 16.91602 34127 ft 447 kts 288°
2026-04-24 10:56 41.31534 16.83649 34119 ft 447 kts 287°
2026-04-24 10:56 41.33053 16.75626 34130 ft 448 kts 287°
2026-04-24 10:57 41.34560 16.67587 34126 ft 448 kts 287°
2026-04-24 10:57 41.36073 16.59545 34132 ft 448 kts 287°
2026-04-24 10:58 41.37583 16.51499 34142 ft 448 kts 287°
2026-04-24 10:58 41.39088 16.43444 34149 ft 448 kts 287°
2026-04-24 10:59 41.40588 16.35389 34150 ft 448 kts 287°
2026-04-24 10:59 41.42070 16.27325 34127 ft 448 kts 287°
2026-04-24 11:00 41.43548 16.19249 34127 ft 449 kts 287°
2026-04-24 11:00 41.45040 16.11159 34132 ft 449 kts 287°
2026-04-24 11:01 41.46521 16.03063 34139 ft 450 kts 287°
2026-04-24 11:01 41.47980 15.95003 34124 ft 450 kts 287°
2026-04-24 11:02 41.49443 15.86879 34133 ft 451 kts 287°
2026-04-24 11:02 41.50992 15.78778 34142 ft 450 kts 289°
2026-04-24 11:03 41.52826 15.70795 34146 ft 450 kts 291°
2026-04-24 11:03 41.54717 15.62833 34127 ft 450 kts 290°
2026-04-24 11:04 41.56536 15.54834 34136 ft 451 kts 290°
2026-04-24 11:04 41.58306 15.46798 34147 ft 451 kts 289°
2026-04-24 11:05 41.60072 15.38764 34156 ft 451 kts 290°
2026-04-24 11:05 41.61851 15.30721 34165 ft 451 kts 290°
2026-04-24 11:06 41.63625 15.22690 34151 ft 451 kts 289°
2026-04-24 11:06 41.65394 15.14644 34157 ft 451 kts 289°
2026-04-24 11:07 41.68039 15.02548 34159 ft 452 kts 289°
2026-04-24 11:07 41.69791 14.94478 34170 ft 452 kts 289°
2026-04-24 11:08 41.71530 14.86397 34175 ft 451 kts 289°
2026-04-24 11:08 41.73261 14.78340 34183 ft 450 kts 289°
2026-04-24 11:09 41.74988 14.70308 34178 ft 448 kts 289°
2026-04-24 11:09 41.76708 14.62300 34173 ft 447 kts 289°
2026-04-24 11:10 41.78409 14.54351 34172 ft 447 kts 289°
2026-04-24 11:10 41.80110 14.46334 34166 ft 447 kts 289°
2026-04-24 11:11 41.81804 14.38325 34169 ft 447 kts 289°
2026-04-24 11:11 41.83492 14.30307 34165 ft 447 kts 288°
2026-04-24 11:12 41.85174 14.22285 34166 ft 447 kts 288°
2026-04-24 11:12 41.86851 14.14264 34153 ft 447 kts 288°
2026-04-24 11:13 41.88531 14.06237 34157 ft 446 kts 289°
2026-04-24 11:13 41.90309 13.98264 34156 ft 446 kts 290°
2026-04-24 11:14 41.92150 13.90318 34141 ft 446 kts 290°
2026-04-24 11:14 41.93976 13.82348 34120 ft 448 kts 290°
2026-04-24 11:15 41.95782 13.74302 33376 ft 454 kts 289°
2026-04-24 11:15 41.96687 13.70234 32675 ft 455 kts 289°
2026-04-24 11:15 41.97590 13.66165 32087 ft 453 kts 289°
2026-04-24 11:16 41.98488 13.62118 31543 ft 450 kts 289°
2026-04-24 11:16 41.99376 13.58105 31040 ft 447 kts 289°
2026-04-24 11:16 42.00261 13.54118 30544 ft 443 kts 289°
2026-04-24 11:16 42.01142 13.50163 30023 ft 440 kts 289°
2026-04-24 11:17 42.02013 13.46235 29395 ft 438 kts 289°
2026-04-24 11:17 42.02875 13.42321 28807 ft 435 kts 289°
2026-04-24 11:17 42.03731 13.38425 28248 ft 432 kts 289°
2026-04-24 11:17 42.04580 13.34559 27707 ft 430 kts 289°
2026-04-24 11:18 42.05423 13.30719 27170 ft 427 kts 289°
2026-04-24 11:18 42.06236 13.26890 26642 ft 425 kts 287°
2026-04-24 11:18 42.06928 13.23039 26139 ft 423 kts 284°
2026-04-24 11:18 42.07523 13.19172 25640 ft 421 kts 283°
2026-04-24 11:19 42.08067 13.15311 25162 ft 419 kts 282°
2026-04-24 11:19 42.08600 13.11464 24587 ft 420 kts 282°
2026-04-24 11:19 42.09147 13.07619 24182 ft 417 kts 283°
2026-04-24 11:19 42.09710 13.03800 23780 ft 414 kts 283°
2026-04-24 11:20 42.10286 12.99997 23260 ft 413 kts 284°
2026-04-24 11:20 42.11097 12.96334 22811 ft 408 kts 295°
2026-04-24 11:20 42.12364 12.92954 22444 ft 401 kts 300°
2026-04-24 11:20 42.13655 12.89650 22030 ft 397 kts 300°
2026-04-24 11:21 42.14913 12.86359 21576 ft 394 kts 299°
2026-04-24 11:21 42.16152 12.83080 21171 ft 390 kts 298°
2026-04-24 11:21 42.17374 12.79828 20742 ft 387 kts 298°
2026-04-24 11:21 42.18586 12.76611 20321 ft 383 kts 298°
2026-04-24 11:22 42.19789 12.73426 19879 ft 379 kts 298°
2026-04-24 11:22 42.20974 12.70277 19461 ft 376 kts 298°
2026-04-24 11:22 42.22135 12.67195 19062 ft 372 kts 298°
2026-04-24 11:22 42.23334 12.64077 18648 ft 367 kts 302°
2026-04-24 11:23 42.24840 12.61390 18225 ft 361 kts 315°
2026-04-24 11:23 42.26763 12.59246 17733 ft 357 kts 329°
2026-04-24 11:23 42.28966 12.57766 17243 ft 353 kts 340°
2026-04-24 11:23 42.31253 12.56588 16739 ft 351 kts 340°
2026-04-24 11:24 42.33526 12.55420 16214 ft 347 kts 340°
2026-04-24 11:24 42.35770 12.54266 15525 ft 342 kts 341°
2026-04-24 11:24 42.37949 12.53136 15129 ft 330 kts 341°
2026-04-24 11:24 42.40062 12.52034 14734 ft 320 kts 341°
2026-04-24 11:25 42.42109 12.50963 14349 ft 310 kts 341°
2026-04-24 11:25 42.44095 12.49924 13974 ft 302 kts 341°
2026-04-24 11:25 42.46029 12.48913 13583 ft 294 kts 341°
2026-04-24 11:25 42.47908 12.47928 13228 ft 286 kts 341°
2026-04-24 11:26 42.49772 12.46952 12883 ft 287 kts 341°
2026-04-24 11:26 42.51632 12.45979 12536 ft 286 kts 341°
2026-04-24 11:26 42.53481 12.45015 12208 ft 285 kts 341°
2026-04-24 11:26 42.55328 12.44052 11771 ft 286 kts 341°
2026-04-24 11:27 42.57189 12.43082 11369 ft 287 kts 341°
2026-04-24 11:27 42.59053 12.42108 11010 ft 286 kts 341°
2026-04-24 11:27 42.60910 12.41135 10660 ft 285 kts 341°
2026-04-24 11:27 42.62759 12.40164 10317 ft 285 kts 342°
2026-04-24 11:28 42.64595 12.39199 10085 ft 280 kts 342°
2026-04-24 11:28 42.66407 12.38245 9978 ft 279 kts 342°
2026-04-24 11:28 42.68237 12.37284 9472 ft 284 kts 342°
2026-04-24 11:28 42.70064 12.36321 9160 ft 279 kts 341°
2026-04-24 11:29 42.71868 12.35367 8655 ft 277 kts 341°
2026-04-24 11:29 42.73663 12.34421 8024 ft 276 kts 341°
2026-04-24 11:29 42.75448 12.33480 7469 ft 273 kts 341°
2026-04-24 11:29 42.77212 12.32592 6984 ft 269 kts 347°
2026-04-24 11:30 42.79045 12.32272 6524 ft 264 kts
2026-04-24 11:30 42.80837 12.32700 6039 ft 262 kts 20°
2026-04-24 11:30 42.81926 12.33369 5887 ft 254 kts 31°
2026-04-24 11:30 42.83292 12.34745 5810 ft 239 kts 39°
2026-04-24 11:31 42.84990 12.36655 5710 ft 239 kts 39°
2026-04-24 11:31 42.86270 12.38086 5613 ft 239 kts 39°
2026-04-24 11:31 42.87556 12.39521 5494 ft 239 kts 39°
2026-04-24 11:31 42.88857 12.40974 5106 ft 243 kts 39°
2026-04-24 11:32 42.90162 12.42434 4755 ft 243 kts 39°
2026-04-24 11:32 42.91047 12.43425 4530 ft 242 kts 39°
2026-04-24 11:32 42.92347 12.44874 4232 ft 240 kts 36°
2026-04-24 11:32 42.93820 12.45851 4039 ft 236 kts 15°
2026-04-24 11:33 42.95409 12.46402 3718 ft 236 kts 13°
2026-04-24 11:33 42.96974 12.46934 3380 ft 231 kts 13°
2026-04-24 11:33 42.98488 12.47458 3051 ft 217 kts 13°
2026-04-24 11:33 42.99869 12.47939 2744 ft 193 kts 13°
2026-04-24 11:34 43.01120 12.48374 2448 ft 180 kts 12°
2026-04-24 11:34 43.02305 12.48786 2204 ft 167 kts 12°
2026-04-24 11:34 43.03385 12.49162 1945 ft 155 kts 13°
2026-04-24 11:34 43.04422 12.49522 1712 ft 151 kts 13°
2026-04-24 11:35 43.05431 12.49873 1489 ft 149 kts 13°
2026-04-24 11:35 43.06410 12.50213 1253 ft 146 kts 13°
2026-04-24 11:35 43.07397 12.50559 1056 ft 147 kts 13°
2026-04-24 11:35 43.08388 12.50903 823 ft 147 kts 14°
2026-04-24 11:36 43.09366 12.51247 682 ft 134 kts 13°
2026-04-24 11:36 43.10017 12.51473 683 ft 64 kts 14°
2026-04-24 11:36 43.10399 12.51605 687 ft 50 kts 14°
2026-04-24 11:36 43.10668 12.51698 687 ft 23 kts 15°
2026-04-24 11:37 43.10725 12.51699 690 ft 5 kts 338°
2026-04-24 11:37 43.10760 12.51650 682 ft 14 kts 305°
2026-04-24 11:37 43.10771 12.51525 679 ft 13 kts 238°
2026-04-24 11:37 43.10692 12.51477 679 ft 11 kts 194°
2026-04-24 11:38 43.10635 12.51457 676 ft 5 kts 193°
2026-04-24 11:38 43.10631 12.51456 677 ft 0 kts 193°
2026-04-24 11:38 43.10625 12.51454 679 ft 4 kts 193°
2026-04-24 11:39 43.10573 12.51437 679 ft 12 kts 193°
2026-04-24 11:39 43.10466 12.51400 679 ft 20 kts 195°
2026-04-24 11:39 43.10326 12.51348 679 ft 21 kts 194°
2026-04-24 11:39 43.10179 12.51296 679 ft 22 kts 193°
2026-04-24 11:40 43.10026 12.51245 679 ft 23 kts 194°
2026-04-24 11:40 43.09875 12.51192 678 ft 21 kts 194°
2026-04-24 11:40 43.09783 12.51166 676 ft 9 kts 209°
2026-04-24 11:40 43.09750 12.51090 678 ft 10 kts 245°
2026-04-24 11:41 43.09719 12.50998 678 ft 11 kts 245°
2026-04-24 11:41 43.09685 12.50893 677 ft 13 kts 248°
2026-04-24 11:41 43.09649 12.50779 678 ft 14 kts 245°
2026-04-24 11:41 43.09608 12.50655 678 ft 15 kts 245°
2026-04-24 11:42 43.09567 12.50528 678 ft 11 kts 245°
2026-04-24 11:42 43.09533 12.50446 678 ft 10 kts 245°
2026-04-24 11:42 43.09519 12.50399 678 ft 2 kts 249°
2026-04-24 11:42 43.09516 12.50379 675 ft 1 kts 274°
2026-04-24 11:43 43.09520 12.50372 678 ft 1 kts 298°
2026-04-24 11:43 43.09521 12.50368 678 ft 0 kts 292°